Home   Weather   Korbach   Past weeks

Flag for Germany Past Weather in Korbach, Hesse, Germany — Yesterday and Last 2 Weeks

Now
46 °F

Drizzle. Broken clouds.


Feels Like: 39 °F
Forecast: 39 / 44 °F
Wind: 17 mph from Northwest

Location: Fritzlar Airport

Current Time: Dec 11, 2016 at 9:15:35 am

Latest Report: Dec 11, 2016 at 8:20 am


Visibility: 5 mi

Pressure: 30.01 "Hg

Humidity: 82%

Dew Point: 41 °F

Location of KorbachLocation

Past Weather in Korbach — Graph

°F

Korbach Temperature Yesterday

Maximum temperature yesterday: 45 °F (at 12:20 pm)
Minimum temperature yesterday: 32 °F (at 5:20 am)
Average temperature yesterday: 40 °F

High & Low Weather Summary for the Past Weeks

 TemperatureHumidityPressure
High46 °F (Dec 2, 12:20 am)100% (Nov 26, 5:20 pm)30.60 "Hg (Nov 26, 5:20 pm)
Low14 °F (Dec 5, 3:47 am)57% (Dec 2, 2:20 pm)29.92 "Hg (Dec 11, 4:50 am)
Average31 °F89%30.32 "Hg
* Reported Nov 26 7:02 am — Dec 11 7:20 am, Korbach, Weather by CustomWeather, © 2016

Note: Actual official high and low records may vary slightly from our data, if they occured in-between our weather recording intervals... More about our weather records

Advertising

Korbach Weather History for the Previous 24 Hours

Scroll right to see more
 ConditionsComfort  
Time TempWeatherWind HumidityBarometerVisibility
7:20 am
Sun, Dec 11
45 °FPartly cloudy.13 mph87%29.92 "Hg5 mi
6:20 am45 °FPartly cloudy.14 mph87%29.92 "Hg5 mi
5:45 am43 °FPassing clouds.15 mph87%29.92 "Hg4 mi
5:20 am43 °FPassing clouds.18 mph87%29.92 "Hg5 mi
4:50 am43 °FPartly cloudy.16 mph87%29.92 "Hg5 mi
4:20 am43 °FPartly cloudy.15 mph87%29.95 "Hg5 mi
3:50 am43 °FPassing clouds.20 mph87%29.98 "HgN/A
3:20 am43 °FPassing clouds.12 mph87%30.01 "HgN/A
2:20 am43 °FPassing clouds.9 mph87%30.04 "HgN/A
1:20 am43 °FPassing clouds.7 mph87%30.07 "HgN/A
12:20 am43 °FPassing clouds.8 mph81%30.09 "HgN/A
11:20 pm
Sat, Dec 10
43 °FPassing clouds.8 mph81%30.12 "HgN/A
10:20 pm41 °FPassing clouds.12 mph87%30.12 "HgN/A
9:20 pm41 °FPassing clouds.12 mph87%30.15 "HgN/A
8:20 pm41 °FPassing clouds.10 mph81%30.15 "HgN/A
7:20 pm41 °FPassing clouds.8 mph87%30.18 "HgN/A
6:20 pm41 °FPassing clouds.8 mph87%30.18 "HgN/A
5:20 pm39 °FPartly cloudy.6 mph87%30.18 "HgN/A
4:20 pm41 °FPartly cloudy.5 mph87%30.21 "HgN/A
3:20 pm43 °FBroken clouds.3 mph81%30.21 "HgN/A
2:20 pm45 °FBroken clouds.7 mph81%30.21 "HgN/A
1:20 pm45 °FBroken clouds.10 mph81%30.21 "HgN/A
12:20 pm45 °FBroken clouds.12 mph81%30.24 "Hg6 mi
11:20 am43 °FPartly sunny.9 mph81%30.24 "Hg6 mi
10:20 am41 °FPartly sunny.10 mph87%30.27 "Hg6 mi
9:20 am39 °FPartly sunny.8 mph87%30.27 "Hg5 mi
Weather by CustomWeather, © 2016

See weather overviewHow to use our weather pages